Location: Seattle
(47.6064°N, 122.3308°W)
Time: 07:01:13
(UTC-07:00)

STRAND 1 - Pass Details

Date: 07 April 2023
Orbit: 767 x 779 km, 98.4° (Epoch: 02 June)

Event Time Altitude Azimuth Distance (km) Brightness Sun altitude
Rises 21:26:30 0° 3° (N) 3,250 ? -16.3°
Reaches altitude 10° 21:29:16 10° 349° (NNW) 2,319 ? -16.7°
Maximum altitude 21:33:05 22° 300° (WNW) 1,643 ? -17.3°
Drops below altitude 10° 21:36:54 10° 251° (WSW) 2,308 ? -17.8°
Sets 21:39:39 0° 236° (WSW) 3,231 ? -18.2°
